Location: *
(47.2969°N, 10.2930°E)
Time: 11:02:46
(UTC+00:00)

Cosmos 1726 Rocket - Pass Details

Date: 09 April 2020
Orbit: 602 x 630 km, 82.5° (Epoch: 25 May)

Event Time Altitude Azimuth Distance (km) Brightness Sun altitude
Rises 18:55:24 0° 187° (S) 2,885 6.8 -9.7°
Reaches altitude 10° 18:57:36 10° 187° (S) 1,988 6.0 -10.1°
Maximum altitude 19:02:02 88° 96° (E) 634 3.6 -10.8°
Drops below altitude 10° 19:06:31 10° 10° (N) 2,018 6.4 -11.5°
Sets 19:08:46 0° 10° (N) 2,933 7.2 -11.8°
